This demonstration page uses our WeatherBlox Daily Observations layout. Learn more.

Left ArrowRight Arrow

Hourly Observations for January 2, 2020

Temp ( °F °C ) Dew Point ( °F °C ) Humidity (%) Winds ( mph kmh ) Pressure ( in mb ) Visibility ( mi km ) Precip ( " mm )
12:53 am 00:53 Clear 39 3.9 23 -5 53 53 Calm 29.85 1011 10 16 0.00 0.00
1:53 am 01:53 Clear 34 1.1 23 -5 64 64 Calm 29.84 1010 10 16 0.00 0.00
2:53 am 02:53 Clear 29 -1.7 23 -5 78 78 ESE 3 6 29.85 1011 10 16 0.00 0.00
3:53 am 03:53 Clear 30 -1.1 24 -4.4 79 79 ESE 3 6 29.83 1010 10 16 0.00 0.00
4:53 am 04:53 Clear 30 -1.1 24 -4.4 79 79 SE 3 6 29.83 1010 10 16 0.00 0.00
5:53 am 05:53 Mostly Cloudy 34 1.1 25 -3.9 70 70 Calm 29.81 1010 10 16 0.00 0.00
6:53 am 06:53 Cloudy 38 3.3 26 -3.3 62 62 SE 3 6 29.80 1009 10 16 0.00 0.00
7:53 am 07:53 Cloudy 43 6.1 27 -2.8 53 53 VRB 6 9 29.80 1009 10 16 0.00 0.00
8:53 am 08:53 Cloudy 44 6.7 27 -2.8 51 51 SSW 8 13 29.81 1009 10 16 0.00 0.00
9:19 am 09:19 Cloudy 45 7.2 28 -2.2 52 52 S 8 13 29.83 1010 10 16 0.00 0.00
9:48 am 09:48 Cloudy 46 8 28 -2 50 50 S 6 9 29.82 1010 10 16 0.00 0.00
9:53 am 09:53 Cloudy 47 8.3 29 -1.7 50 50 VRB 7 11 29.82 1010 10 16 0.00 0.00
10:37 am 10:37 Cloudy 48 8.9 30 -1.1 50 50 SSW 5 7 29.84 1011 10 16 0.00 0.00
10:53 am 10:53 Cloudy 49 9.4 30 -1.1 48 48 VRB 5 7 29.82 1010 10 16 0.00 0.00
11:53 am 11:53 Cloudy 50 10 31 -0.6 48 48 S 8 13 29.80 1009 10 16 0.00 0.00
12:11 pm 12:11 Cloudy 50 10 31 -0.6 48 48 SSW 7 11 29.80 1009 10 16 0.00 0.00
12:25 pm 12:25 Cloudy 51 10.6 32 0 48 48 VRB 7 11 29.79 1009 10 16 0.00 0.00
12:35 pm 12:35 Cloudy 51 10.6 32 0 48 48 SSW 6 9 29.79 1009 10 16 0.00 0.00
12:53 pm 12:53 Cloudy 51 10.6 33 0.6 50 50 SSW 5 7 29.79 1009 10 16 0.00 0.00
1:53 pm 13:53 Cloudy 51 10.6 37 2.8 59 59 VRB 5 7 29.77 1008 10 16 0.00 0.00
2:20 pm 14:20 Cloudy 51 10.6 38 3.3 61 61 VRB 7 11 29.76 1008 10 16 0.00 0.00
2:53 pm 14:53 Cloudy 51 10.6 39 3.9 64 64 S 9 15 29.75 1007 10 16 0.00 0.00
3:53 pm 15:53 Cloudy with Light Rain 49 9.4 43 6.1 80 80 SW 8 13 29.78 1008 9 14 0.00 0.00
4:53 pm 16:53 Cloudy 49 9.4 43 6.1 80 80 VRB 5 7 29.78 1008 10 16 0.00 0.00
5:53 pm 17:53 Cloudy with Light Rain 48 8.9 46 7.8 93 93 Calm 29.77 1008 3 5 0.01 0.25
6:22 pm 18:22 Cloudy 48 8.9 46 7.8 93 93 Calm 29.78 1009 8 13 0.01 0.25
6:53 pm 18:53 Cloudy with Light Rain 48 8.9 46 7.8 93 93 VRB 3 6 29.78 1008 10 16 0.01 0.25
7:16 pm 19:16 Cloudy with Light Rain 48 8.9 46 7.8 93 93 VRB 3 6 29.77 1008 10 16 0.01 0.25
7:21 pm 19:21 Cloudy with Light Rain 48 8.9 46 7.8 93 93 VRB 3 6 29.77 1008 9 14 0.01 0.25
7:53 pm 19:53 Cloudy with Light Rain 48 8.9 47 8.3 96 96 VRB 3 6 29.76 1008 7 11 0.02 0.51
8:14 pm 20:14 Cloudy 49 9.4 47 8.3 93 93 Calm 29.76 1008 9 14 0.00 0.00
8:44 pm 20:44 Cloudy with Light Rain 49 9.4 47 8.3 93 93 Calm 29.76 1008 9 14 0.01 0.25
8:53 pm 20:53 Cloudy with Light Rain 49 9.4 48 8.9 97 97 S 3 6 29.75 1008 5 8 0.01 0.25
9:26 pm 21:26 Cloudy with Light Rain 49 9.4 48 8.9 97 97 SSE 3 6 29.75 1007 3 5 0.04 1.02
9:48 pm 21:48 Cloudy with Light Rain 48 9 48 9 100 100 VRB 3 6 29.76 1008 4 6 0.07 1.78
9:53 pm 21:53 Cloudy with Light Rain 50 10 49 9.4 96 96 Calm 29.75 1008 5 8 0.07 1.78
10:25 pm 22:25 Cloudy with Light Rain 50 10 49 9.4 96 96 VRB 5 7 29.75 1007 7 11 0.02 0.51
10:53 pm 22:53 Cloudy with Light Rain 48 8.9 47 8.3 96 96 Calm 29.74 1007 6 10 0.03 0.76
11:09 pm 23:09 Cloudy with Light Rain 48 8.9 47 8.3 96 96 VRB 5 7 29.75 1007 8 13 0.01 0.25
11:24 pm 23:24 Cloudy with Light Rain 48 8.9 47 8.3 96 96 S 3 6 29.75 1007 6 10 0.01 0.25
11:53 pm 23:53 Cloudy with Light Rain 48 8.9 47 8.3 96 96 Calm 29.74 1007 4 6 0.03 0.76

Powered by AerisWeather